Weather reports worldwide

Advertisment
Kleine Brogel, Belgium (6479): temperature & dewpoint: 14.10.2020 16:00:00 - 20.10.2020 16:00:00 (CEST)Kleine Brogel, Belgium (6479): wind speed & gusts: 14.10.2020 16:00:00 - 20.10.2020 16:00:00 (CEST)Kleine Brogel, Belgium (6479): wind direction: 14.10.2020 16:00:00 - 20.10.2020 16:00:00 (CEST)Kleine Brogel, Belgium (6479): reduced air pressure: 14.10.2020 16:00:00 - 20.10.2020 16:00:00 (CEST)Kleine Brogel, Belgium (6479): visibility: 14.10.2020 16:00:00 - 20.10.2020 16:00:00 (CEST)
Date & Time tt [°C] td [°C] ff [km/h] ff [kn] fx [km/h] fx [kn] dd ppp [hPa] vv [km]
20.10.2020 16:00:00 15,0 10,9 14 8 32 18 SSW 1008,8 18
20.10.2020 15:00:00 15,3 10,6 14 8 29 16 SSW 1008,2 20
20.10.2020 14:00:00 15,1 10,3 18 10 - - S 1008,2 20
20.10.2020 13:00:00 14,0 9,6 14 8 29 16 SSW 1008,7 20
20.10.2020 12:00:00 13,2 8,6 14 8 29 16 S 1009,0 20
20.10.2020 11:00:00 12,3 8,0 14 8 - - SSW 1009,0 20
20.10.2020 10:00:00 12,0 7,3 14 8 25 14 SSW 1008,7 20
20.10.2020 09:00:00 11,1 6,9 4 2 11 6 N 1008,7 20
20.10.2020 08:00:00 8,3 5,7 4 2 - - N 1008,5 20
20.10.2020 07:00:00 6,8 4,8 4 2 7 4 - 1009,5 10
20.10.2020 06:00:00 7,5 4,7 4 2 14 8 N 1009,2 20
20.10.2020 05:00:00 6,8 4,4 4 2 - - N 1010,3 20
20.10.2020 04:00:00 6,8 4,3 4 2 11 6 N 1010,8 20
20.10.2020 03:00:00 6,6 4,2 4 2 14 8 N 1012,0 20
20.10.2020 02:00:00 7,1 4,4 4 2 - - N 1012,7 20
20.10.2020 01:00:00 7,0 4,2 4 2 11 6 N 1013,6 20
20.10.2020 00:00:00 7,5 4,0 4 2 7 4 N 1014,5 20
19.10.2020 23:00:00 8,3 4,5 4 2 - - N 1015,3 20
19.10.2020 22:00:00 9,0 4,8 4 2 11 6 N 1016,3 20
19.10.2020 21:00:00 8,6 5,2 4 2 7 4 N 1017,5 20
19.10.2020 20:00:00 9,1 5,3 4 2 - - N 1017,8 20
19.10.2020 19:00:00 10,6 5,7 4 2 11 6 N 1017,8 20
19.10.2020 18:00:00 12,1 6,0 4 2 7 4 N 1018,3 20
19.10.2020 17:00:00 12,6 5,1 4 2 - - N 1019,1 20
19.10.2020 16:00:00 13,1 6,0 4 2 14 8 N 1019,6 20
19.10.2020 15:00:00 13,1 5,6 11 6 22 12 SSW 1020,3 20
19.10.2020 14:00:00 12,9 7,6 7 4 - - S 1021,0 20
19.10.2020 13:00:00 12,4 7,3 11 6 18 10 S 1021,6 20
19.10.2020 12:00:00 10,2 7,6 7 4 11 6 S 1022,1 15
19.10.2020 11:00:00 9,2 7,7 4 2 - - N 1022,6 10
19.10.2020 10:00:00 7,8 7,4 4 2 7 4 N 1022,6 8
19.10.2020 09:00:00 6,4 6,0 4 2 4 2 N 1022,5 5
19.10.2020 08:00:00 5,7 5,7 4 2 - - N 1022,0 0,2
19.10.2020 07:00:00 5,5 5,5 4 2 4 2 N 1022,1 0,8
19.10.2020 06:00:00 7,1 6,8 2 1 7 4 - 1022,3 0,5
19.10.2020 05:00:00 8,1 7,5 7 4 - - SW 1022,6 3,9
19.10.2020 04:00:00 8,6 7,9 7 4 11 6 SW 1022,8 6
19.10.2020 03:00:00 8,9 8,2 4 2 7 4 N 1022,7 5
19.10.2020 02:00:00 9,1 8,3 5 3 - - SW 1022,8 7
19.10.2020 01:00:00 9,3 8,4 4 2 7 4 N 1023,0 7
19.10.2020 00:00:00 9,3 8,2 7 4 7 4 N 1023,0 16
18.10.2020 23:00:00 9,6 8,1 4 2 - - N 1022,8 19
18.10.2020 22:00:00 10,0 8,2 4 2 11 6 N 1022,7 20
18.10.2020 21:00:00 10,3 8,1 4 2 11 6 N 1022,7 20
18.10.2020 20:00:00 10,6 8,8 4 2 - - N 1022,6 10
18.10.2020 19:00:00 11,3 8,7 7 4 11 6 W 1022,2 17
18.10.2020 18:00:00 11,8 8,4 7 4 14 8 WSW 1021,7 18
18.10.2020 17:00:00 12,3 8,1 7 4 - - WSW 1021,7 20
18.10.2020 16:00:00 12,6 8,0 11 6 18 10 SW 1022,0 18
18.10.2020 15:00:00 12,5 8,3 11 6 18 10 SW 1022,3 17
18.10.2020 14:00:00 11,6 8,7 14 8 - - WSW 1022,7 11
18.10.2020 13:00:00 11,2 7,9 14 8 18 10 SW 1023,1 18
18.10.2020 12:00:00 10,2 7,6 9 5 14 8 SW 1023,1 10
18.10.2020 11:00:00 9,1 7,0 7 4 - - SW 1022,8 6
18.10.2020 10:00:00 8,1 6,4 4 2 11 6 N 1023,0 7
18.10.2020 09:00:00 7,5 6,2 4 2 11 6 N 1022,3 6
18.10.2020 08:00:00 7,2 6,0 4 2 - - N 1021,8 5
18.10.2020 07:00:00 7,2 5,9 4 2 7 4 N 1021,8 5
18.10.2020 06:00:00 7,1 6,0 4 2 7 4 N 1022,0 5
18.10.2020 05:00:00 7,0 5,9 4 2 - - N 1022,1 5
18.10.2020 04:00:00 6,6 5,8 4 2 4 2 - 1022,0 6
18.10.2020 03:00:00 6,4 5,5 4 2 4 2 - 1022,1 5
18.10.2020 02:00:00 6,5 5,6 4 2 - - N 1022,2 5
18.10.2020 01:00:00 6,0 4,9 4 2 4 2 N 1022,1 6
18.10.2020 00:00:00 6,5 5,6 4 2 4 2 N 1022,0 9
17.10.2020 23:00:00 7,0 5,4 4 2 - - N 1021,8 6
17.10.2020 22:00:00 8,1 5,4 4 2 4 2 N 1021,7 8
17.10.2020 21:00:00 8,6 6,2 4 2 4 2 N 1021,6 8
17.10.2020 20:00:00 9,0 6,7 4 2 - - N 1021,6 10
17.10.2020 19:00:00 9,1 6,1 4 2 4 2 N 1021,1 10
17.10.2020 18:00:00 9,8 5,3 4 2 7 4 N 1020,7 19
17.10.2020 17:00:00 11,1 4,6 4 2 - - N 1020,7 17
17.10.2020 16:00:00 - - - - - - - - -
17.10.2020 15:00:00 - - - - - - - - -
17.10.2020 14:00:00 10,7 3,7 4 2 - - N 1021,0 11
17.10.2020 13:00:00 10,1 3,9 4 2 7 4 N 1021,5 19
17.10.2020 12:00:00 - - - - - - - - -
17.10.2020 11:00:00 7,7 5,9 4 2 - - N 1021,2 11
17.10.2020 10:00:00 6,6 5,8 2 1 0 0 - 1021,2 10
17.10.2020 09:00:00 5,8 5,1 0 0 0 0 N 1021,2 7
17.10.2020 08:00:00 5,5 5,1 0 0 - - N 1021,0 8
17.10.2020 07:00:00 5,6 5,2 4 2 0 0 N 1021,1 7
17.10.2020 06:00:00 5,5 5,0 4 2 4 2 N 1021,2 9
17.10.2020 05:00:00 5,0 4,7 4 2 - - - 1021,2 6
17.10.2020 04:00:00 5,3 4,8 4 2 4 2 N 1021,5 7
17.10.2020 03:00:00 6,0 4,8 4 2 4 2 N 1021,7 10
17.10.2020 02:00:00 7,3 5,2 4 2 - - N 1022,0 18
17.10.2020 01:00:00 7,8 5,1 4 2 7 4 N 1022,3 20
17.10.2020 00:00:00 7,5 5,6 4 2 4 2 N 1022,6 20
16.10.2020 23:00:00 7,1 5,0 4 2 - - N 1022,8 20
16.10.2020 22:00:00 8,1 5,0 4 2 7 4 N 1022,7 20
16.10.2020 21:00:00 8,8 5,6 4 2 11 6 N 1022,8 20
16.10.2020 20:00:00 9,2 5,6 4 2 - - N 1022,8 20
16.10.2020 19:00:00 9,5 6,1 7 4 14 8 NNE 1022,5 20
16.10.2020 18:00:00 10,2 6,7 7 4 11 6 NNE 1022,1 20
16.10.2020 17:00:00 10,6 6,6 7 4 - - NE 1022,1 20
16.10.2020 16:00:00 11,6 6,4 7 4 18 10 NE 1022,2 15
16.10.2020 15:00:00 11,5 6,8 11 6 18 10 NE 1022,2 15
16.10.2020 14:00:00 11,0 6,9 11 6 - - NNE 1022,7 15
16.10.2020 13:00:00 10,4 7,0 11 6 18 10 NE 1023,2 15
16.10.2020 12:00:00 8,4 6,2 11 6 18 10 NNE 1023,2 10
16.10.2020 11:00:00 8,4 6,2 11 6 - - NNE 1023,2 15
16.10.2020 10:00:00 7,9 6,2 9 5 18 10 NNE 1023,2 10
16.10.2020 09:00:00 7,0 5,6 7 4 14 8 N 1022,7 15
16.10.2020 08:00:00 6,9 5,6 4 2 - - N 1022,7 19
16.10.2020 07:00:00 6,9 5,6 4 2 7 4 N 1022,6 17
16.10.2020 06:00:00 6,9 5,6 4 2 7 4 N 1022,3 19
16.10.2020 05:00:00 7,0 5,6 4 2 - - N 1022,2 20
16.10.2020 04:00:00 7,1 5,7 4 2 11 6 N 1022,3 20
16.10.2020 03:00:00 7,5 5,7 7 4 14 8 N 1022,5 20
16.10.2020 02:00:00 7,5 5,7 4 2 - - N 1022,2 20
16.10.2020 01:00:00 8,1 5,7 4 2 11 6 N 1022,2 20
16.10.2020 00:00:00 8,3 5,7 4 2 14 8 N 1022,2 20
15.10.2020 23:00:00 8,6 5,7 7 4 - - NNE 1022,1 20
15.10.2020 22:00:00 9,3 5,9 11 6 18 10 NNE 1021,8 20
15.10.2020 21:00:00 9,3 6,1 11 6 14 8 NNE 1021,8 20
15.10.2020 20:00:00 9,5 6,3 7 4 - - NNE 1021,6 20
15.10.2020 19:00:00 9,6 6,2 14 8 22 12 NNE 1021,1 20
15.10.2020 18:00:00 9,9 6,7 14 8 25 14 NNE 1020,7 20
15.10.2020 17:00:00 10,3 6,4 18 10 - - NNE 1020,2 20
15.10.2020 16:00:00 10,6 6,3 14 8 25 14 NNE 1020,2 20
15.10.2020 15:00:00 10,5 6,0 16 9 32 18 NNE 1020,2 10
15.10.2020 14:00:00 11,2 6,0 18 10 - - NNE 1020,3 20
15.10.2020 13:00:00 10,2 5,5 14 8 25 14 NNE 1020,7 20
15.10.2020 12:00:00 10,3 6,1 14 8 25 14 NNE 1020,7 20
15.10.2020 11:00:00 9,0 5,5 14 8 - - NNE 1020,7 20
15.10.2020 10:00:00 8,0 4,7 11 6 14 8 N 1020,2 20
15.10.2020 09:00:00 7,3 4,7 7 4 14 8 N 1019,8 20
15.10.2020 08:00:00 7,3 4,8 7 4 - - N 1019,5 20
15.10.2020 07:00:00 7,5 4,9 11 6 18 10 N 1019,2 20
15.10.2020 06:00:00 7,8 5,1 7 4 14 8 N 1018,8 20
15.10.2020 05:00:00 8,0 5,3 7 4 - - N 1018,8 20
15.10.2020 04:00:00 8,0 5,4 7 4 14 8 N 1019,0 20
15.10.2020 03:00:00 8,1 5,6 11 6 18 10 NNE 1019,1 20
15.10.2020 02:00:00 8,1 5,7 7 4 - - NNE 1019,0 20
15.10.2020 01:00:00 8,3 5,7 7 4 18 10 NNE 1018,7 20
15.10.2020 00:00:00 8,5 5,6 7 4 14 8 N 1019,0 20
14.10.2020 23:00:00 8,6 5,4 7 4 - - N 1019,0 20
14.10.2020 22:00:00 8,8 5,1 7 4 11 6 N 1018,7 20
14.10.2020 21:00:00 8,8 4,9 4 2 14 8 N 1018,6 20
14.10.2020 20:00:00 9,3 4,9 7 4 - - NNE 1018,6 20
14.10.2020 19:00:00 9,8 5,1 11 6 22 12 NNE 1018,3 20
14.10.2020 18:00:00 10,3 5,3 11 6 25 14 NNE 1018,1 20
14.10.2020 17:00:00 10,9 5,1 14 8 - - NNE 1017,8 20
14.10.2020 16:00:00 11,7 5,9 22 12 32 18 NNE 1017,7 20

tt = temperature
td = dewpoint
ff = wind speed
fx = gusts
dd = wind direction
ppp = reduced air pressure
vv = visibility

Next stations